Location: Iesi
(43.5167°N, 13.2333°E)
Time: 19:24:01
(UTC+00:00)

ATLAS 3B R/B - Pass Details

Date: 08 August 2020
Orbit: 1016 x 1179 km, 63.8° (Epoch: 22 September)

Event Time Altitude Azimuth Distance (km) Brightness Sun altitude
Exits shadow 22:21:15 79° 102° (ESE) 1,038 2.4 -29.5°
Drops below altitude 10° 22:27:43 10° 38° (NE) 2,829 5.4 -29.8°
Sets 22:30:21 0° 37° (NE) 3,799 6.1 -29.9°
